Home   Weather   Wichita   Past weeks

Flag for USA Past Weather in Wichita, Kansas, USA — Yesterday and Last 2 Weeks

Now
31 °F

Passing clouds.


Feels Like: 19 °F
Forecast: 31 / 42 °F
Wind: 17 mph from North

Location: Wichita Mid-Continent Airport

Current Time: Dec 6, 2016 at 6:29:59 am

Latest Report: Dec 6, 2016 at 5:53 am


Visibility: 10 mi

Pressure: 30.00 "Hg

Humidity: 64%

Dew Point: 20 °F

Location of WichitaLocation

Past Weather in Wichita — Graph

°F

Wichita Temperature Yesterday

Maximum temperature yesterday: 54 °F (at 2:53 pm)
Minimum temperature yesterday: 28 °F (at 6:53 am)
Average temperature yesterday: 40 °F

High & Low Weather Summary for the Past Weeks

 TemperatureHumidityPressure
High71 °F (Nov 22, 2:53 pm)100% (Dec 3, 8:53 pm)30.50 "Hg (Dec 3, 8:53 pm)
Low21 °F (Dec 1, 5:53 am)25% (Nov 28, 2:53 pm)29.25 "Hg (Nov 28, 12:53 pm)
Average45 °F67%29.95 "Hg
* Reported Nov 21 4:53 am — Dec 6 4:53 am, Wichita, Weather by CustomWeather, © 2016

Note: Actual official high and low records may vary slightly from our data, if they occured in-between our weather recording intervals... More about our weather records

Advertising

Wichita Weather History for the Previous 24 Hours

Scroll right to see more
 ConditionsComfort  
Time TempWeatherWind HumidityBarometerVisibility
4:53 am
Tue, Dec 6
32 °FPassing clouds.20 mph69%29.96 "Hg10 mi
3:53 am34 °FPassing clouds.22 mph70%29.93 "Hg10 mi
2:53 am36 °FPartly cloudy.21 mph75%29.91 "Hg10 mi
1:53 am38 °FPassing clouds.24 mph79%29.86 "Hg10 mi
12:53 am40 °FOvercast.15 mph93%29.82 "Hg7 mi
11:53 pm
Mon, Dec 5
34 °FFog.5 mph97%29.78 "Hg6 mi
10:53 pm36 °FClear.No wind97%29.76 "Hg10 mi
9:53 pm36 °FClear.5 mph92%29.74 "Hg10 mi
8:53 pm37 °FClear.5 mph93%29.73 "Hg10 mi
7:53 pm39 °FClear.7 mph89%29.72 "Hg10 mi
6:53 pm42 °FClear.6 mph79%29.71 "Hg10 mi
5:53 pm44 °FClear.3 mph71%29.69 "Hg10 mi
4:53 pm49 °FPassing clouds.13 mph61%29.66 "Hg10 mi
3:53 pm52 °FPassing clouds.20 mph55%29.65 "Hg10 mi
2:53 pm54 °FSunny.23 mph53%29.65 "Hg10 mi
1:53 pm53 °FPassing clouds.21 mph52%29.67 "Hg10 mi
12:53 pm52 °FSunny.22 mph55%29.72 "Hg10 mi
11:53 am50 °FScattered clouds.25 mph63%29.75 "Hg10 mi
10:53 am47 °FPassing clouds.20 mph74%29.80 "Hg10 mi
9:53 am43 °FPassing clouds.18 mph82%29.82 "Hg10 mi
8:53 am36 °FPassing clouds.12 mph89%29.85 "Hg9 mi
7:53 am31 °FPassing clouds.8 mph92%29.87 "Hg10 mi
6:53 am28 °FPassing clouds.7 mph89%29.87 "Hg10 mi
Weather by CustomWeather, © 2016

See weather overviewHow to use our weather pages